Location: �chenoz-la-M�line
(47.6009°N, 6.1354°E)
Time: 18:03:08
(UTC+00:00)

Cosmos 2333 Rocket - Visible Passes

Search period start: 14 May 2021 00:00
Search period end: 24 May 2021 00:00
Orbit: 838 x 864 km, 70.8° (Epoch: 13 May)

Date Brightness Start Highest point End Pass type
(mag) Time Alt. Az. Time Alt. Az. Time Alt. Az.
18 May 3.8 03:16:13 10° S 03:21:21 34° ESE 03:26:30 10° NE visible
19 May 3.7 03:03:57 10° S 03:09:04 34° ESE 03:14:13 10° NE visible
20 May 3.7 02:51:40 10° S 02:56:48 34° ESE 03:01:57 10° NE visible
21 May 3.6 02:39:24 10° S 02:44:32 34° ESE 02:49:41 10° NE visible
22 May 3.6 02:27:07 10° S 02:32:16 34° ESE 02:37:25 10° NE visible
23 May 3.6 02:14:52 10° S 02:20:00 34° ESE 02:25:09 10° NE visible
